BIKF

Keflavík International Airport

Airport
ICAO code
BIKF
IATA Code
KEF
Summary
ICAO Region
NAT
ICAO Territory
Location

Keflavik, Suournes

Serving
Keflavik
Elevation
171 ft
Coordinates
63° 58' 36" N , 22° 36' 53" W
KCC
Airport WX
Volcanic Ash
Metar
Observation
BIKF 021700Z 13005KT 9999 FEW012 04/04 Q1015
Station
Keflavikurflugvollur
Date/Time
2022-12-02 17:00:00
Wind direction
130°
Wind speed
05 kts
Lowest cloud amount
few clouds
Temperature
4°C
Dew point
4°C
Humidity
100%
QNH
1015 hPa
Weather condition
n/a

Description

International civ/mil airport serving western Iceland.

Climatology

Subpolar Oceanic climate (Köppen climate classification Cfc) - uniform precipitation distribution, temperatures are moderated by the proximity of the ocean and warm currents - cool summers and comparatively mild winters.

Runways

Designator Length Width Surface Rops
2/20 3054 60 ASP Yes/Yes
11/29 3065 60 ASP Yes/Yes

Airport map

Aerial View

SKYbrary Partners:

Safety knowledge contributed by: